Currently 54°F in Simi Valley, California, USA
54°F
54°F / 54°F
calm
0.00"
Tuesday, October 15, 2019 12:13 AM PDT

Simi Valley, California Climate Summary
Typical November Day

Normal High:    73.0°F (22.8°C)
Normal Low:    51.9°F (11.1°C)
Average:    61.6°F (16.4°C)

Hour    Temperature    Wind Speed    Humidity
12:00 AM    57°F (14°C)    4 mph    57%
1:00 AM    57°F (14°C)    4 mph    57%
2:00 AM    56°F (13°C)    4 mph    57%
3:00 AM    56°F (13°C)    5 mph    57%
4:00 AM    56°F (13°C)    4 mph    58%
5:00 AM    55°F (13°C)    4 mph    58%
6:00 AM    55°F (13°C)    4 mph    59%
7:00 AM    55°F (13°C)    5 mph    59%
8:00 AM    57°F (14°C)    5 mph    57%
9:00 AM    62°F (17°C)    5 mph    53%
10:00 AM    66°F (19°C)    6 mph    46%
11:00 AM    69°F (21°C)    6 mph    42%
12:00 PM    71°F (22°C)    6 mph    39%
1:00 PM    72°F (22°C)    6 mph    37%
2:00 PM    72°F (22°C)    7 mph    38%
3:00 PM    71°F (22°C)    7 mph    40%
4:00 PM    69°F (20°C)    6 mph    44%
5:00 PM    66°F (19°C)    5 mph    48%
6:00 PM    63°F (17°C)    4 mph    52%
7:00 PM    61°F (16°C)    4 mph    54%
8:00 PM    60°F (15°C)    4 mph    55%
9:00 PM    59°F (15°C)    4 mph    56%
10:00 PM    58°F (14°C)    4 mph    56%
11:00 PM    57°F (14°C)    4 mph    57%
 

The Simi Valley, California weather pages are a service of WeatherCurrents.
Copyright ©2019  WeatherCurrents. All rights reserved. - Submit questions and comments - Privacy Policy